Regional Weather Roundup
Issued by NWS

Home | Current Version | Previous Version | Graphics & Text | Print | Product List | Glossary On
Versions: 1 2 3 4 5 6 7 8 9 10 11 12 13 14 15 16 17 18 19 20 21 22 23 24 25 26 27 28 29 30 31 32 33 34 35 36 37 38 39 40 41 42 43 44 45 46 47 48 49 50
000
ASUS43 KLSX 302307
RWRMO

WEATHER SUMMARY FOR MISSOURI
NATIONAL WEATHER SERVICE SPRINGFIELD MO
600 PM CDT TUE SEP 30 2014

NOTE: "FAIR" INDICATES FEW OR NO CLOUDS BELOW 12,000 FEET WITH NO
       SIGNIFICANT WEATHER AND/OR OBSTRUCTIONS TO VISIBILITY.
       CURRENT SKY AND/OR WEATHER CONDITIONS ARE NOT AVAILABLE FOR
       CHILLICOTHE AND FARMINGTON.

MOZ001>031-035>038-043-044-053-054-010000-
...NORTHERN AND WESTERN MISSOURI...

CITY           SKY/WX    TMP DP  RH WIND       PRES   REMARKS
KANSAS CTY INT MOSUNNY   79  58  48 S13       29.79S
KANSAS C DTWN  SUNNY     83  57  41 S10       29.78F
LEE`S SUMMIT   MOSUNNY   81  57  43 S10G18    29.81F
ST JOSEPH      PTSUNNY   82  58  43 S12       29.77S
CHILLICOTHE      N/A     82  59  45 S5        29.82R
KIRKSVILLE     CLEAR     73  61  65 E12       29.87S

$$
MOZ066>068-077>081-088>096-101>105-010000-
...SOUTHWEST MISSOURI...

CITY           SKY/WX    TMP DP  RH WIND       PRES   REMARKS
SPRINGFIELD    MOSUNNY   80  57  45 S9        29.86S
JOPLIN         SUNNY     80  61  52 S10       29.83F

$$
MOZ032>034-039>042-045>050-055>058-069>072-010000-
...CENTRAL MISSOURI...

CITY           SKY/WX    TMP DP  RH WIND       PRES   REMARKS
COLUMBIA       PTCLDY    81  58  45 S6        29.85S
JEFFERSON CITY CLEAR     84  54  35 S5        29.83S
ROLLA          PTCLDY    81  52  36 SW6       29.86S
SEDALIA        SUNNY     82  58  43 S10       29.84S
WHITEMAN AFB   MOSUNNY   80  60  51 S8        29.82F
OSAGE BEACH    CLEAR     82  57  42 S5        29.85S

$$
MOZ051-052-059>065-010000-
...EAST CENTRAL MISSOURI...

CITY           SKY/WX    TMP DP  RH WIND       PRES   REMARKS
ST LOUIS INTL  MOCLDY    82  55  39 E9        29.88S
SPIRIT OF STL  PTCLDY   N/A N/A N/A E6        29.86R
ST CHARLES     CLEAR     79  60  52 E8        29.87R

$$
MOZ072>076-082>087-097>100-106>115-010000-
...SOUTH CENTRAL AND SOUTHEAST MISSOURI...

CITY           SKY/WX    TMP DP  RH WIND       PRES   REMARKS
CAPE GIRARDEAU CLEAR     78  58  49 E3        29.88R
FARMINGTON     CLEAR     81  54  39 S7        29.91R
POPLAR BLUFF   PTCLDY    79  57  46 CALM      29.86S
WEST PLAINS    CLEAR     79  52  38 S6        29.91S

$$



USA.gov is the U.S. government's official web portal to all federal, state and local government web resources and services.